Theta_e
306 306 306 307 307 307 307 307 307 307 307 307 306 306 307 307 307 307 307 307 307 308 307 308 308 308 308 307 307 305 303 306 311 313 313 313 313 311 310 308 304 305 305 310 318 315 315 317 319 320 318 318 316 316 318 316 317 316 317 316 313 314 315 317 318 317 318 320 319 319 320 323 327 327 328 332 333 334 334 339 341 341 344 344 346 350 352 352
306 306 306 306 306 306 306 307 307 307 306 307 306 306 306 307 306 307 307 307 307 307 307 308 308 308 308 306 306 304 304 310 313 313 312 311 310 309 307 305 304 304 305 311 317 314 314 317 317 319 317 317 316 316 317 316 316 316 317 315 314 317 317 318 318 319 319 319 318 319 319 321 328 328 328 330 334 336 335 338 341 343 345 344 347 351 352 352
306 306 306 306 306 306 306 306 306 306 306 306 306 306 306 306 306 307 307 307 307 307 307 307 307 308 307 306 304 303 307 313 312 312 314 312 309 308 306 304 304 304 305 312 317 314 316 317 317 318 315 315 316 315 316 316 316 316 317 315 316 318 318 318 318 318 319 319 318 319 318 321 328 329 328 331 334 334 335 338 339 343 346 346 347 350 351 351
306 306 306 305 305 305 306 306 306 306 306 306 306 306 306 306 306 306 306 307 307 307 307 307 307 307 307 306 303 304 310 313 311 313 313 310 308 307 307 305 304 303 306 312 315 315 316 316 318 316 315 315 316 316 316 316 316 316 315 316 318 318 318 317 317 318 318 318 318 318 318 320 324 325 326 331 332 331 334 335 337 342 347 349 347 349 351 351
306 306 306 306 305 305 306 305 305 305 305 305 305 305 306 306 306 306 306 306 307 307 307 307 307 307 307 305 302 306 312 309 311 316 309 306 305 305 305 305 304 304 307 311 313 315 315 316 317 315 315 315 315 315 315 316 317 316 315 316 318 318 317 317 316 317 318 318 318 318 318 319 320 321 324 330 331 331 333 332 335 340 345 348 346 348 349 349
305 306 306 306 305 305 305 305 305 305 304 303 304 306 305 306 306 306 306 306 307 307 307 307 306 307 306 303 302 308 312 308 313 315 309 306 306 304 305 305 305 306 308 311 313 314 315 315 315 315 314 314 315 315 315 316 316 316 317 317 317 317 317 317 317 317 317 318 318 318 318 318 319 320 325 328 328 331 332 334 336 337 342 346 345 347 348 347
305 305 305 305 305 305 305 305 304 305 305 303 304 306 305 305 306 305 306 306 306 306 306 306 306 307 305 303 306 311 310 309 312 312 310 308 306 306 305 306 306 307 310 311 312 313 313 314 314 315 314 314 314 314 315 315 315 315 316 317 317 316 317 317 317 317 317 318 318 318 317 318 318 321 326 326 326 330 331 334 336 336 340 343 344 347 348 348
305 305 305 305 305 305 304 305 305 305 305 304 304 305 305 306 306 306 306 306 306 306 306 306 306 307 305 306 311 311 308 309 309 310 311 308 310 311 308 309 309 309 311 311 312 312 312 313 313 314 314 314 314 314 315 315 315 315 315 316 316 317 316 316 317 317 317 318 318 317 317 318 318 322 326 324 323 327 331 331 333 335 338 339 344 348 347 349
305 304 305 305 304 304 304 305 305 305 305 304 304 305 305 306 306 306 305 306 306 306 306 305 306 305 304 308 311 309 309 309 308 310 313 311 316 317 313 314 312 310 312 311 312 312 312 312 313 314 313 314 314 314 314 314 314 316 315 315 316 317 316 316 316 317 317 318 318 317 317 318 318 321 324 324 323 325 331 332 330 333 337 339 344 347 347 349
305 305 304 304 304 304 304 304 304 305 304 304 304 305 305 305 305 305 305 305 305 305 306 305 306 305 306 310 309 308 309 308 310 311 314 313 316 319 316 316 314 311 312 312 311 312 312 313 313 314 313 314 314 313 314 314 315 316 316 315 315 316 316 316 316 316 318 318 318 317 317 318 317 319 320 323 324 325 329 332 331 332 338 340 342 346 347 347
304 304 304 304 304 304 304 304 304 305 304 304 304 304 305 305 305 305 305 305 305 305 305 305 305 305 308 311 309 309 307 308 312 314 315 315 316 318 317 316 315 313 313 311 312 312 312 314 314 314 313 313 313 313 314 314 315 316 316 315 315 315 316 316 316 317 318 318 317 317 317 318 317 317 320 322 324 325 329 332 332 333 338 340 340 344 345 345
304 304 304 303 303 303 304 304 304 304 304 305 304 304 305 305 305 305 305 304 305 305 305 305 304 305 309 310 309 309 309 310 312 313 314 315 316 317 316 317 316 314 313 312 312 312 313 314 314 313 313 313 312 313 314 314 315 315 315 315 315 315 316 315 316 317 318 317 318 317 316 316 317 317 320 323 324 326 329 331 333 334 338 339 340 342 342 343
304 304 304 303 303 303 303 304 304 304 304 304 304 304 305 305 305 304 304 304 304 305 305 305 305 306 308 309 309 309 309 309 309 309 310 312 314 315 315 315 315 314 313 312 312 313 313 313 313 312 313 313 312 313 314 314 314 314 314 315 315 314 314 316 317 317 318 317 317 317 312 313 317 319 322 323 325 327 328 332 334 336 339 339 339 340 341 343
304 304 304 304 304 303 303 304 304 304 304 304 304 304 304 304 304 304 304 304 304 304 305 305 304 307 308 308 308 308 307 308 307 306 307 309 311 312 313 314 315 314 313 313 313 312 312 313 313 312 313 313 314 314 314 314 314 314 314 314 314 311 311 315 316 316 318 317 318 316 310 312 318 320 322 322 325 327 327 330 333 336 339 340 340 339 340 343
304 304 304 304 304 303 303 303 304 304 304 304 304 304 304 303 303 303 303 303 304 304 304 304 305 308 309 309 309 309 307 307 307 306 306 307 308 309 310 312 314 314 314 314 313 314 313 313 313 312 312 312 313 315 315 314 315 314 312 310 312 310 312 316 316 316 317 316 317 316 311 314 318 318 319 321 324 326 326 328 333 338 340 339 340 339 339 341
304 304 304 304 303 303 303 303 303 303 303 304 304 304 303 302 302 302 302 303 303 304 304 305 307 308 309 309 309 309 308 308 307 306 306 306 307 308 309 312 314 314 315 315 315 315 314 314 313 312 312 312 313 315 315 313 313 314 311 308 309 310 311 314 315 317 317 316 317 315 314 317 320 319 318 319 322 325 326 326 332 338 340 337 338 338 339 340
304 304 304 303 303 303 302 302 303 303 304 303 303 303 302 301 301 301 302 302 302 304 304 306 308 308 309 309 308 308 308 309 307 307 307 306 307 308 310 313 314 314 315 315 315 315 314 313 312 311 313 313 313 315 313 309 309 312 311 310 310 311 311 311 314 317 317 317 317 316 317 320 322 322 320 320 321 324 326 326 332 338 340 337 336 337 340 341
304 304 304 303 303 303 302 302 303 303 303 303 302 301 301 301 301 302 303 303 304 305 305 307 309 309 310 309 308 308 309 309 308 308 307 306 307 307 311 314 314 314 314 313 314 314 313 312 311 312 312 313 314 314 311 309 311 310 310 310 310 310 311 312 313 316 317 316 317 316 318 323 323 323 323 323 323 323 325 327 331 337 339 337 336 336 338 342
304 304 303 303 303 303 302 302 303 303 303 302 301 301 303 304 304 305 306 305 305 306 306 307 308 309 310 308 308 309 309 309 309 309 309 308 307 307 311 314 314 313 313 312 312 312 312 311 311 311 312 313 314 313 312 313 314 313 312 311 310 309 311 314 315 316 317 316 316 316 317 322 323 324 325 325 326 326 328 329 329 332 334 335 336 336 339 343
304 303 303 303 303 302 303 302 303 303 302 302 302 303 305 306 307 306 306 305 305 306 306 306 307 307 307 309 309 309 309 309 309 309 309 309 308 308 311 314 314 313 313 312 312 312 312 311 311 311 312 313 315 315 314 315 316 316 314 312 312 311 310 315 317 316 318 315 315 317 318 322 325 325 326 326 327 326 326 328 327 328 331 333 335 338 342 344
303 302 302 302 302 302 302 302 302 302 302 302 302 303 304 305 306 305 306 306 305 306 305 306 308 307 307 309 309 309 308 308 309 309 309 309 308 307 310 314 314 313 313 313 312 312 312 311 311 313 313 314 315 316 315 316 317 316 314 312 311 312 311 315 317 316 317 315 315 317 318 322 327 327 327 327 328 328 328 327 325 326 329 334 338 341 344 343
302 302 302 302 302 302 302 302 302 302 301 302 302 303 304 305 305 305 307 307 307 307 305 305 307 307 308 308 308 309 308 307 307 308 310 309 307 307 310 314 314 314 313 313 313 312 312 311 312 313 313 313 314 315 316 317 317 316 315 312 310 312 313 315 317 316 317 315 315 317 319 323 327 328 328 329 331 332 332 331 329 328 331 335 339 341 342 341
301 301 301 302 302 302 302 302 302 301 301 302 303 303 304 304 305 305 306 307 307 307 306 305 305 305 306 307 308 307 307 308 307 309 311 309 307 307 310 313 314 314 313 313 314 312 312 312 312 313 313 313 314 314 316 317 316 316 315 311 309 312 312 311 314 316 317 316 317 319 321 325 329 329 330 331 332 333 332 333 332 333 336 337 338 339 339 338
301 301 301 301 302 302 302 302 302 302 302 303 303 304 304 304 304 305 306 306 305 306 307 307 305 304 306 307 307 307 306 308 308 309 311 309 307 308 310 313 314 314 314 314 314 313 313 313 312 313 312 313 314 315 315 315 315 316 315 312 310 312 312 312 314 316 316 316 319 320 318 323 327 328 331 331 331 331 330 333 334 336 337 336 334 335 335 335
301 300 300 300 301 302 301 301 302 302 303 303 303 304 303 303 304 305 305 306 306 306 306 308 307 305 305 307 307 306 306 306 307 310 312 310 308 308 310 313 313 314 314 314 314 314 314 314 313 313 312 312 314 314 315 315 314 313 314 314 313 314 315 315 315 315 312 312 317 318 314 316 322 324 330 330 330 333 332 334 336 335 334 332 332 332 331 331
300 299 300 300 301 301 301 302 303 303 302 303 303 303 303 304 305 305 306 306 307 307 306 307 307 306 306 306 306 306 305 305 306 309 312 310 309 310 310 312 314 314 314 315 314 315 314 315 313 313 313 312 312 314 315 316 313 311 313 314 315 316 315 314 315 312 309 310 317 320 314 313 318 323 329 330 330 334 335 335 333 332 330 329 329 329 328 329
300 299 299 300 301 301 301 302 303 303 302 303 303 303 304 304 305 306 308 307 307 307 307 307 307 307 306 306 306 306 305 306 306 308 311 311 310 310 311 313 313 313 315 315 314 314 315 315 314 313 313 312 312 315 316 316 312 310 314 315 314 315 315 315 314 312 311 313 317 319 314 313 317 322 329 330 329 333 335 333 331 329 328 327 327 326 326 326
300 299 299 300 301 301 301 302 303 303 303 303 303 303 304 305 305 307 309 310 310 308 308 307 307 307 307 307 307 306 307 307 305 306 310 311 310 309 311 312 313 313 314 314 313 314 314 314 314 313 314 314 314 315 315 314 311 312 316 315 315 316 315 315 314 312 313 313 312 315 314 314 317 323 328 331 329 332 335 333 330 328 326 326 325 325 324 323
300 299 299 300 300 300 301 302 302 303 303 303 303 304 304 305 306 307 309 311 311 308 309 308 307 307 307 307 307 306 307 307 306 306 309 311 310 310 310 312 314 313 314 314 313 314 313 314 314 314 314 315 314 314 314 313 312 314 316 315 315 315 315 316 315 312 311 312 311 313 313 311 315 322 325 328 329 331 334 332 328 326 325 324 324 323 323 322
300 299 299 300 301 301 301 302 302 302 302 302 303 304 304 305 307 308 309 312 310 308 309 308 307 307 307 307 307 306 306 308 308 307 308 310 310 310 311 313 314 313 314 314 314 314 313 313 314 315 315 314 314 313 314 314 313 314 315 315 314 314 315 314 313 311 310 311 311 312 314 311 316 325 326 326 328 330 333 330 327 326 324 322 322 322 322 321
299 299 299 300 301 302 302 302 302 302 302 302 303 304 304 306 308 309 310 312 308 308 309 308 308 307 308 308 307 306 306 308 309 307 308 309 309 310 311 312 313 314 314 313 314 314 313 314 315 314 314 314 314 313 314 314 313 314 315 314 311 311 312 311 311 311 309 310 310 311 315 310 313 323 325 325 329 329 331 330 327 325 323 321 321 321 321 321
299 299 300 300 301 301 301 302 302 302 302 302 303 304 305 308 310 309 310 309 309 310 309 309 308 307 308 308 307 306 306 308 309 307 308 309 309 309 310 312 313 314 313 313 314 314 313 314 314 314 314 314 314 313 313 314 313 314 314 312 310 309 311 311 310 310 309 310 309 311 314 310 312 321 325 330 333 330 329 327 325 323 322 321 321 320 320 320
299 300 300 300 301 301 301 301 302 302 303 303 304 304 307 309 310 310 309 308 311 312 310 309 308 308 309 308 307 307 306 308 309 308 309 309 309 309 310 312 313 314 314 314 313 311 312 315 314 313 313 313 315 312 311 312 312 313 311 311 310 309 312 313 311 311 311 309 310 313 311 311 323 333 334 333 330 327 326 323 322 322 321 321 320 319 319 318
299 300 300 301 300 301 301 301 302 302 303 304 304 306 308 310 310 309 309 309 311 311 310 310 309 308 309 308 308 307 306 308 309 309 309 309 310 310 310 311 312 314 315 314 313 311 311 314 314 314 313 313 315 313 313 314 312 313 313 312 310 309 311 313 311 310 310 309 310 312 311 315 330 335 331 330 327 325 324 321 321 321 320 320 319 318 318 318
299 299 300 301 301 301 301 301 302 302 303 304 305 307 309 310 309 308 309 310 311 312 310 310 309 308 309 308 308 307 306 308 310 310 310 309 310 310 310 311 312 314 314 313 313 311 310 312 314 314 314 313 314 314 315 314 312 313 314 311 310 310 311 311 311 310 310 311 311 313 320 327 333 333 329 329 327 324 323 321 321 320 320 320 319 318 318 317
299 300 300 301 301 301 301 301 302 302 303 304 305 308 309 309 309 309 310 310 311 313 312 311 310 308 309 309 308 308 307 308 310 310 310 310 310 311 310 311 312 313 313 313 313 312 310 311 314 314 314 314 314 315 315 314 312 313 311 310 311 314 314 310 310 312 312 313 311 317 331 334 334 334 330 328 327 325 324 323 321 321 320 320 319 318 317 317
300 301 302 302 302 302 302 301 302 302 303 304 306 308 309 309 309 309 311 312 311 313 313 312 311 309 309 310 308 308 306 308 311 310 310 310 310 311 310 311 312 312 313 314 313 313 312 311 313 314 313 314 314 314 314 314 314 312 309 311 313 314 315 312 311 313 312 314 313 318 334 335 332 334 332 329 329 327 325 324 322 321 321 320 319 318 317 317
301 302 303 303 303 302 302 302 302 302 303 305 307 309 308 309 309 308 311 312 311 312 313 313 312 309 310 310 308 308 307 309 310 310 310 310 311 311 311 311 312 312 313 314 314 314 313 311 312 314 314 313 314 313 313 314 314 313 312 313 313 311 311 311 312 313 312 315 315 318 331 333 327 331 333 330 329 327 325 324 322 321 320 319 318 317 317 316
302 303 304 304 304 304 303 302 302 302 303 305 306 307 307 308 308 308 309 310 310 311 313 315 313 310 309 310 309 308 307 309 310 311 310 310 311 312 311 312 312 312 313 313 314 314 314 312 311 313 313 313 313 312 311 312 313 314 314 313 313 311 311 310 311 313 312 313 316 319 326 328 325 329 332 330 329 327 325 324 322 321 320 319 318 317 316 315
303 304 305 306 306 305 303 303 303 303 303 304 305 306 307 307 308 308 308 309 310 311 313 315 314 312 310 310 310 309 308 309 310 311 311 311 311 311 311 312 311 312 313 313 314 314 315 313 311 313 313 312 312 312 311 312 312 312 311 311 311 311 312 312 311 312 310 311 314 316 320 327 330 331 330 328 328 327 325 323 321 319 318 317 317 316 315 314
303 304 306 307 306 305 304 303 303 303 303 304 305 305 307 308 308 308 307 307 308 309 311 313 314 315 314 312 311 309 308 309 310 311 311 310 311 311 311 312 312 312 312 312 313 314 314 313 312 312 311 309 311 311 312 313 313 313 311 311 312 310 311 311 311 312 310 310 312 312 323 332 331 329 330 328 327 326 324 322 319 317 316 315 315 314 314 313
304 306 307 306 306 306 304 303 303 303 303 304 305 306 307 308 308 308 308 307 307 308 310 311 313 314 315 314 312 310 308 309 310 311 311 311 312 312 311 312 312 312 313 312 313 314 315 314 313 312 311 311 312 313 313 314 314 314 313 313 314 312 310 309 310 312 310 311 310 309 327 334 326 324 329 329 326 325 322 320 317 316 315 314 314 313 313 312
305 306 307 306 305 305 304 303 302 302 304 304 305 306 307 308 308 308 308 307 307 309 311 312 313 313 314 314 313 311 309 310 311 311 311 312 313 313 312 312 312 311 312 312 313 314 315 314 313 312 311 311 313 312 312 314 314 313 313 314 313 312 313 311 312 313 310 311 310 310 328 333 323 321 325 325 324 323 320 319 317 315 315 314 313 313 312 312
305 305 306 305 305 305 306 305 302 302 304 305 307 307 307 307 307 307 307 306 308 310 312 313 313 312 313 313 312 312 310 310 311 311 312 312 314 314 312 312 313 312 311 312 314 314 314 314 313 312 312 312 315 315 313 313 315 314 313 314 313 313 314 313 314 314 311 312 310 311 327 331 322 320 321 320 320 319 317 317 316 315 315 313 312 312 312 312
305 305 305 305 305 306 306 306 305 305 305 305 307 307 307 307 306 307 307 305 306 309 312 313 312 312 312 312 312 312 311 311 311 311 311 313 316 315 312 312 313 311 311 315 317 313 314 315 314 313 314 314 315 315 313 312 313 314 314 313 314 314 314 313 313 311 312 313 309 312 327 327 320 319 319 318 317 316 316 315 314 314 313 312 311 311 311 311
306 305 304 304 305 306 305 305 307 307 306 305 306 306 307 307 307 307 307 307 307 309 311 312 312 312 312 313 314 313 312 312 313 313 313 318 318 315 313 314 311 312 319 322 319 314 316 319 321 320 318 316 315 314 314 314 313 313 314 314 314 315 315 314 311 310 313 312 311 318 326 324 321 319 318 316 315 314 314 314 313 313 312 311 311 310 310 310
306 306 303 303 304 304 304 304 305 307 307 306 306 307 308 308 308 308 308 310 310 310 311 311 311 312 313 314 315 315 313 313 314 315 316 319 318 315 314 313 312 319 324 320 314 314 318 322 325 325 322 320 319 319 317 315 313 313 314 316 316 315 317 315 312 314 316 315 319 326 326 323 321 319 316 315 314 314 313 313 312 312 311 311 311 310 310 310
306 306 304 304 304 304 304 304 305 306 306 307 307 308 308 307 308 310 310 311 310 310 311 312 312 312 312 314 315 316 316 316 315 316 317 318 317 317 316 313 314 320 321 314 313 315 317 321 325 325 323 321 321 321 319 317 317 317 316 317 317 317 319 317 315 319 323 321 324 328 326 323 321 317 315 314 313 312 312 311 311 311 310 310 310 310 310 309
306 306 305 306 307 306 305 306 307 307 308 308 308 307 307 307 310 311 311 311 311 311 311 312 313 312 311 313 315 317 318 317 316 317 320 321 320 318 317 316 317 318 315 313 316 316 317 322 324 323 323 322 321 322 322 322 323 324 320 318 319 320 321 321 320 324 327 327 328 327 324 322 318 315 313 312 310 310 309 309 310 310 310 309 309 309 309 309
307 307 307 307 307 307 308 308 309 310 310 308 307 307 307 308 310 311 310 311 312 313 311 312 313 313 313 314 314 316 317 316 317 320 322 322 321 320 319 319 318 316 314 316 320 320 319 321 324 323 323 323 323 323 323 324 325 327 325 323 324 325 327 328 328 328 328 328 326 322 319 317 313 311 310 308 308 308 308 309 309 309 309 309 308 308 309 309
308 308 308 308 309 308 310 311 311 310 309 308 307 308 309 309 310 310 311 310 311 313 312 312 313 314 315 315 315 316 316 314 316 320 322 321 319 320 320 319 317 316 316 319 323 323 320 321 324 323 322 323 324 322 324 325 324 325 325 325 325 327 327 328 327 328 327 325 321 319 317 314 310 308 308 307 307 308 308 308 308 308 308 308 307 307 308 307
307 308 309 309 310 310 311 311 310 309 309 308 308 308 310 312 311 311 312 310 309 311 312 313 315 317 317 318 318 318 317 315 315 318 320 318 317 318 318 317 316 316 318 320 321 320 319 321 323 321 321 324 324 323 324 323 321 322 321 321 322 323 325 325 325 325 324 323 322 320 316 311 309 308 308 307 307 307 307 307 307 307 307 306 306 306 307 307
Wind_Speed
9 9 9 9 9 9 9 9 9 9 9 10 11 12 10 11 12 12 12 12 12 13 14 14 15 17 17 17 17 17 17 18 18 17 18 16 13 14 15 11 6 9 10 6 9 11 13 14 14 14 12 9 8 8 8 8 7 5 5 7 6 8 6 4 4 2 2 8 5 5 3 5 8 10 6 6 7 9 10 6 7 8 8 12 18 21 23 21
9 9 9 9 9 9 9 9 9 9 10 10 11 12 11 11 11 12 12 12 13 13 14 15 15 17 18 16 16 15 17 19 19 21 21 19 17 19 18 16 11 8 11 11 13 14 12 13 14 13 10 7 7 8 7 8 8 6 6 6 7 7 3 1 2 3 4 5 3 3 3 4 3 8 8 11 10 10 10 10 8 9 12 13 19 21 21 20
9 9 8 8 9 9 9 10 10 10 10 11 11 11 11 11 11 11 12 12 13 13 14 15 15 17 18 15 14 13 16 19 18 18 14 12 17 22 20 18 17 12 14 14 13 15 13 12 13 12 10 8 7 7 7 8 8 8 7 6 7 7 2 1 2 3 4 2 2 2 2 3 3 3 8 12 11 12 11 11 9 9 13 15 17 19 20 19
9 8 8 8 8 9 9 10 11 11 11 12 12 11 11 12 12 12 12 12 12 13 14 15 15 16 17 15 12 12 15 15 12 5 6 9 9 13 16 17 20 17 16 15 13 15 14 12 12 11 10 8 8 8 7 7 7 7 8 8 7 3 4 3 4 3 3 2 2 1 3 5 5 3 6 10 11 12 10 12 13 10 11 15 16 16 17 16
8 8 8 8 8 9 10 10 11 12 13 13 13 12 12 11 12 12 12 12 12 12 13 14 15 15 18 15 10 11 11 8 1 9 12 10 6 4 4 9 19 21 17 16 15 15 15 13 11 11 10 8 9 8 9 9 8 7 8 12 9 2 4 3 5 3 3 3 2 2 3 1 4 6 8 10 8 8 9 12 15 14 10 14 16 14 16 14
8 8 8 8 8 9 10 11 12 12 13 13 12 12 13 12 12 12 12 12 12 12 13 14 14 15 17 13 10 11 10 4 6 9 7 6 3 4 3 1 12 20 19 18 16 15 15 14 12 11 10 9 11 9 9 11 10 8 7 12 11 6 6 2 5 5 3 5 3 2 1 1 6 8 9 8 2 1 8 11 16 15 10 13 15 13 14 13
8 8 8 9 9 10 11 11 12 12 13 13 12 11 12 13 12 12 12 12 12 12 13 13 12 14 15 11 10 11 10 10 2 5 4 4 5 9 4 1 9 18 20 19 18 16 14 15 14 11 11 10 12 11 10 11 12 10 8 10 10 9 9 3 4 6 6 6 3 2 1 6 8 7 9 4 3 4 8 12 15 13 12 13 13 12 13 12
8 8 8 9 10 11 11 12 12 12 12 12 12 11 11 12 12 12 11 12 11 12 13 13 12 12 13 11 10 9 10 16 10 4 1 7 8 8 4 5 12 18 21 22 19 17 14 16 16 12 11 11 10 11 11 11 12 12 12 9 7 9 10 7 5 6 8 6 4 4 4 7 5 6 10 7 7 6 8 13 14 8 10 13 11 12 12 10
8 8 9 10 11 12 12 12 12 12 12 13 13 12 11 12 12 11 11 12 11 11 12 11 12 11 10 10 9 8 9 14 10 1 2 5 5 5 6 9 16 19 20 22 21 18 15 14 16 14 12 12 11 11 11 11 9 11 14 11 7 8 9 8 8 9 9 6 5 7 8 7 4 5 10 9 8 9 10 13 15 10 10 13 11 11 11 10
8 9 9 10 11 12 13 13 13 13 13 13 13 12 12 13 12 12 12 12 11 11 11 11 11 11 10 10 10 8 4 5 4 2 2 4 5 8 11 12 16 19 20 21 22 20 16 14 15 13 12 11 10 10 11 11 6 6 12 13 11 10 9 9 10 11 10 8 8 9 9 8 8 9 7 9 8 9 11 11 15 14 11 12 11 10 9 9
9 9 10 11 11 12 13 13 13 13 13 12 13 13 12 12 12 11 11 11 11 11 11 10 10 10 11 10 10 6 2 3 4 3 1 3 6 9 11 12 14 18 20 19 21 22 19 17 13 10 10 9 9 11 10 12 8 4 7 11 12 12 9 10 11 12 10 9 10 10 9 10 11 11 7 12 10 9 12 11 13 13 11 11 12 10 8 8
9 10 11 11 12 12 13 13 12 12 13 12 13 13 11 11 11 11 11 11 11 10 10 10 9 9 11 10 11 11 3 2 4 2 2 4 5 8 9 9 12 17 18 17 21 22 20 19 14 12 9 6 9 10 8 13 12 8 7 9 12 13 11 12 12 11 11 11 13 12 8 10 12 11 9 13 11 9 11 11 11 11 10 11 11 9 8 8
9 10 11 11 12 13 13 13 12 12 12 12 13 13 11 11 11 11 11 11 11 10 9 9 9 10 12 8 13 21 16 10 9 7 7 6 5 6 7 9 12 16 18 18 18 19 20 18 14 14 9 6 8 3 3 10 12 10 9 8 10 11 12 14 14 14 14 11 14 14 8 10 13 10 11 11 9 10 11 10 10 10 9 10 10 9 8 8
10 10 11 11 12 13 13 12 13 12 12 12 12 12 12 12 12 11 11 11 11 10 10 9 9 10 10 9 16 24 22 18 16 16 15 12 10 8 7 8 11 14 16 16 16 18 19 15 11 12 10 10 8 1 3 9 10 10 10 8 9 8 10 16 16 17 17 11 14 15 8 10 14 13 11 9 9 9 11 12 11 10 9 9 8 9 9 8
11 11 11 11 12 13 12 12 12 12 12 12 12 13 13 14 15 14 13 12 11 10 9 9 10 10 7 11 18 19 20 18 17 19 18 16 14 12 9 9 10 12 13 14 14 14 14 12 9 9 10 12 10 4 7 9 8 9 9 8 9 8 9 17 18 18 17 12 15 16 9 9 14 14 12 10 9 11 10 12 12 10 10 10 8 8 8 8
11 12 11 11 12 12 11 11 11 11 11 11 11 13 15 17 18 17 15 13 12 10 9 10 11 11 7 7 6 9 16 19 21 21 20 18 16 14 12 10 11 12 12 11 10 10 10 10 10 10 10 11 10 7 8 8 8 9 10 8 10 11 9 15 18 18 18 13 15 19 10 7 11 12 13 12 12 12 9 10 13 12 11 10 9 8 7 8
12 12 12 11 11 11 11 11 11 11 11 10 12 14 17 19 18 18 16 13 12 10 12 12 9 9 9 9 4 7 15 18 19 19 19 20 17 15 14 11 11 14 13 11 9 10 12 10 9 9 9 9 10 9 9 9 9 9 9 8 10 14 9 12 15 17 20 16 16 22 11 9 11 11 12 12 13 13 11 11 12 11 11 10 9 9 8 7
12 12 12 12 11 11 11 10 10 10 10 11 13 15 14 13 12 13 11 11 11 9 11 12 8 7 8 13 13 11 15 18 16 15 18 20 19 17 14 12 12 14 13 11 10 11 11 9 9 9 10 10 11 11 10 9 10 9 10 9 9 13 12 12 15 16 21 17 16 22 13 11 12 10 10 9 10 11 10 9 11 12 11 9 9 9 8 7
12 12 12 12 11 11 11 10 10 10 11 12 14 14 11 7 8 11 11 12 12 9 7 8 11 8 2 9 17 9 7 13 13 13 16 19 20 18 15 14 13 15 13 10 12 13 10 9 10 10 10 12 13 13 13 11 11 12 12 11 10 11 11 11 14 17 20 16 15 20 14 13 12 10 10 8 7 7 7 6 9 12 11 9 8 8 8 8
11 11 12 12 11 11 11 10 10 10 11 12 13 11 9 8 7 9 12 14 13 12 10 10 18 16 7 3 12 8 5 8 11 14 17 19 20 18 15 14 14 14 13 11 12 13 11 10 12 12 13 15 16 16 17 15 11 11 13 13 11 10 11 12 14 19 20 14 14 19 15 13 10 9 10 9 8 8 8 8 9 10 12 10 8 9 9 7
11 11 11 12 12 12 11 10 10 10 11 11 11 9 7 7 4 3 7 13 18 20 20 15 16 19 16 3 4 5 5 9 13 15 18 20 20 18 14 15 15 12 13 14 12 11 12 12 13 16 16 17 17 16 18 16 12 10 10 12 10 10 11 10 11 18 20 13 13 20 16 13 9 8 10 8 9 7 7 8 9 10 12 10 10 10 9 7
12 12 11 11 12 12 11 10 9 10 11 11 12 12 10 9 6 6 4 8 16 22 23 21 17 16 18 13 5 4 7 11 15 15 18 21 20 17 14 16 15 12 15 16 11 11 12 12 16 18 17 16 17 16 17 16 12 9 8 10 10 10 11 9 11 15 17 11 11 15 13 12 10 8 9 9 9 7 6 6 6 7 9 10 11 9 9 10
12 12 11 11 11 12 10 10 10 11 12 13 14 14 13 11 7 7 8 7 10 17 20 20 20 17 16 17 12 9 10 11 14 16 19 20 18 16 15 16 16 14 16 17 13 11 10 12 17 17 16 17 16 16 17 14 10 9 9 10 8 12 13 9 11 15 16 11 9 12 9 9 10 9 9 9 10 10 9 9 8 10 12 12 12 10 11 11
13 12 11 11 11 11 9 9 12 14 15 15 17 17 13 10 7 8 7 7 10 12 17 20 19 17 17 17 14 13 12 10 12 15 20 20 17 16 16 16 17 15 15 19 18 14 11 12 17 18 17 18 16 16 18 12 9 11 12 10 9 14 14 9 11 14 15 13 11 14 10 7 10 10 9 9 10 11 12 12 13 15 15 14 14 13 12 11
12 11 11 10 10 9 8 10 14 16 15 15 16 16 13 10 7 7 6 6 8 10 15 19 16 15 20 19 15 14 12 11 13 13 20 21 18 15 14 13 13 15 18 21 19 13 13 12 16 19 18 19 17 15 17 13 9 11 13 13 13 14 13 13 14 13 11 11 12 15 11 7 11 12 10 10 10 11 12 13 14 14 13 13 13 11 11 11
11 11 10 10 9 7 6 8 10 11 12 12 12 8 8 9 4 3 4 6 8 9 14 16 12 15 20 18 14 13 12 13 14 13 18 21 20 15 12 10 10 15 18 18 13 8 11 12 15 18 18 20 19 14 16 16 10 9 12 15 17 14 15 17 18 13 9 10 12 15 11 7 11 13 12 12 12 13 11 13 13 11 11 11 10 9 9 10
11 10 10 9 8 7 7 5 6 6 6 7 7 5 6 7 3 1 4 6 6 8 15 14 10 16 20 17 17 14 10 11 13 15 16 20 21 16 14 13 10 14 15 12 9 8 11 14 15 18 18 17 15 12 16 18 12 8 11 16 17 13 16 16 15 12 9 9 12 16 14 7 8 12 14 14 13 14 11 11 12 10 11 11 10 9 9 9
10 10 10 9 9 10 10 9 9 7 3 2 6 7 6 4 2 3 4 5 4 7 12 12 10 16 18 18 21 17 10 12 15 14 15 20 21 16 15 17 15 16 17 13 10 9 12 15 16 17 15 12 13 13 15 17 14 10 12 16 12 11 15 15 13 12 11 10 10 15 16 9 7 10 13 14 14 13 12 11 11 11 11 11 10 9 9 9
10 10 10 9 9 11 13 12 11 10 3 2 5 6 5 3 2 4 5 5 5 8 9 11 11 13 16 18 21 19 14 13 14 14 15 19 21 15 12 16 17 17 19 16 12 10 12 15 15 16 13 11 13 15 16 17 15 13 13 16 12 10 12 12 12 12 11 10 9 14 17 10 7 11 12 14 14 13 11 10 10 10 10 10 9 9 9 8
10 11 9 8 9 11 12 13 14 13 7 3 6 5 5 4 3 5 6 5 6 8 9 10 12 15 18 19 18 20 20 14 12 16 16 16 20 17 12 14 16 14 16 17 14 12 12 11 11 13 12 12 13 14 15 17 17 14 8 12 13 10 9 9 10 11 10 10 12 16 18 14 8 8 10 11 13 14 12 11 10 11 11 10 9 8 8 8
10 10 9 10 11 9 9 8 10 14 11 6 7 7 5 4 4 6 7 6 6 8 9 10 14 17 21 20 16 19 21 16 15 19 16 14 17 17 12 12 12 12 13 14 14 16 14 11 10 11 13 13 13 14 14 16 19 14 7 9 12 9 8 8 8 11 10 10 14 16 19 18 11 7 12 13 13 16 14 11 11 12 11 10 9 8 8 8
9 9 9 12 12 10 8 3 2 8 9 6 7 7 5 5 6 6 6 6 5 6 9 13 16 17 21 20 17 19 20 15 16 20 17 15 15 15 14 13 11 12 13 12 13 15 14 13 14 13 15 15 13 12 12 13 16 15 11 11 11 9 8 9 9 11 10 10 13 16 18 16 7 4 11 11 13 15 13 11 12 12 11 10 10 9 8 7
7 8 9 12 13 12 12 7 2 5 7 4 7 6 4 6 7 9 9 6 4 2 5 12 17 18 20 19 16 20 20 15 17 18 17 18 15 16 18 18 17 14 11 12 14 13 11 12 16 15 14 15 15 12 11 11 14 15 12 11 11 9 9 9 9 9 9 11 11 15 16 10 5 5 9 16 17 16 15 13 12 12 12 11 10 9 8 8
7 8 10 12 13 13 13 11 8 8 5 6 7 6 6 7 7 12 11 4 5 4 6 8 16 20 20 17 16 20 18 15 19 18 17 18 14 14 17 20 22 17 10 12 12 11 13 12 14 16 12 14 18 15 12 12 14 15 13 12 11 10 9 9 9 9 10 10 9 11 11 5 7 5 9 15 16 15 15 14 11 11 11 10 10 9 9 8
7 10 13 13 13 14 14 13 12 11 9 8 6 7 9 7 7 11 8 2 4 6 6 6 13 18 17 16 18 22 17 14 20 19 15 16 14 14 15 16 22 20 12 11 9 11 15 11 14 16 12 15 19 16 14 13 12 12 13 12 12 12 10 7 9 8 6 7 8 7 2 4 6 7 10 13 14 14 15 14 12 10 10 9 9 9 8 7
10 12 13 12 13 14 16 15 14 13 10 7 6 8 9 7 4 3 1 1 2 5 5 6 11 14 14 13 16 23 20 14 18 17 13 17 16 17 17 15 20 22 14 10 7 9 13 10 15 18 14 17 18 15 16 14 10 10 12 12 12 14 11 8 9 6 4 7 8 6 5 6 5 6 8 12 13 13 14 14 12 10 10 9 9 8 7 7
12 11 9 11 12 13 16 16 16 15 10 6 7 7 7 5 3 2 3 2 2 3 4 6 10 12 14 13 13 21 21 15 17 15 12 17 16 17 20 16 19 23 18 12 8 8 10 9 15 20 16 17 18 17 17 16 13 10 10 12 12 13 12 8 7 7 7 8 8 7 8 8 7 5 9 13 13 12 13 13 12 10 10 9 9 8 8 8
11 7 7 9 10 12 15 16 17 14 8 6 9 9 5 4 5 3 4 3 2 3 5 4 7 12 13 13 13 21 21 15 16 15 13 14 13 17 21 17 19 24 21 16 9 8 10 7 12 19 18 16 17 16 15 17 18 14 11 12 11 11 12 9 8 9 10 9 8 9 11 9 8 7 12 16 15 14 13 12 12 10 10 9 9 8 8 7
10 6 4 5 8 11 15 17 15 11 7 7 8 8 5 5 11 9 3 2 1 4 3 1 5 11 13 13 13 19 21 16 15 14 12 11 12 18 21 16 17 22 22 19 10 7 9 7 8 16 18 16 14 13 12 14 17 16 13 13 11 10 10 10 8 7 9 10 9 10 10 7 5 8 15 17 16 16 15 12 11 10 10 9 8 7 7 7
7 4 3 7 9 12 16 15 11 8 7 8 7 7 5 7 12 10 2 3 3 1 1 2 7 9 11 13 14 16 17 16 15 13 11 11 12 17 20 17 16 19 22 21 13 7 8 7 7 12 17 15 11 12 14 14 14 14 13 13 12 10 9 10 9 8 9 10 9 9 9 4 1 3 13 16 15 15 15 13 12 11 11 9 8 7 7 7
5 2 3 8 11 14 15 11 8 7 7 8 7 7 7 7 9 7 2 1 3 2 2 4 7 5 3 8 13 16 14 13 15 13 9 12 12 11 16 18 17 19 20 19 14 9 7 7 7 10 13 13 12 14 18 18 16 14 11 12 13 12 11 11 10 10 9 9 9 9 6 3 5 4 5 12 13 14 14 14 13 12 12 10 9 8 8 7
4 2 3 9 13 15 13 7 6 7 7 7 7 8 7 7 8 4 2 1 3 3 4 5 7 6 4 7 9 14 15 13 15 13 10 13 12 9 14 19 18 19 17 14 14 11 7 6 8 9 11 13 14 17 19 18 18 17 12 12 14 13 12 11 10 10 10 10 11 8 5 4 5 6 3 9 13 14 14 15 14 12 11 10 10 9 9 8
3 0 3 8 13 14 10 6 7 8 7 7 8 9 7 6 7 5 2 2 3 3 4 6 7 6 6 6 6 10 16 13 14 15 12 13 13 11 16 20 19 19 15 12 13 11 5 6 8 9 10 11 13 15 15 13 14 15 14 14 14 12 13 12 10 9 9 10 11 6 5 4 3 6 6 10 14 14 13 14 14 13 11 10 10 9 9 9
1 0 3 7 12 11 7 6 7 7 8 8 7 8 8 6 6 6 3 2 3 4 5 6 6 6 5 5 6 10 14 13 14 16 12 12 12 11 17 19 17 16 14 10 10 9 6 7 9 8 9 9 8 9 12 12 12 11 12 15 16 16 18 15 10 8 8 11 13 7 3 4 5 5 7 12 15 14 13 12 13 13 12 10 9 9 9 8
1 2 3 7 10 8 6 5 3 4 7 8 6 7 8 5 2 3 6 6 5 5 6 6 6 7 7 7 7 9 11 9 10 13 12 10 10 9 14 17 15 15 14 12 11 9 6 8 8 8 10 12 10 10 10 11 11 9 12 17 19 19 20 15 9 8 7 11 13 7 5 6 8 9 10 12 14 14 13 12 12 12 11 10 9 8 8 8
1 2 4 6 7 7 6 6 5 6 7 7 7 6 8 6 2 2 4 6 6 6 7 7 8 8 9 9 7 8 9 8 6 8 9 7 9 9 13 16 17 14 10 9 11 9 6 5 3 2 4 5 7 10 12 12 12 12 15 17 17 17 17 14 11 9 7 9 8 5 13 14 11 12 13 12 13 13 13 12 12 11 11 10 9 8 8 7
2 2 5 6 5 6 6 6 7 6 6 6 4 3 5 6 3 2 2 3 4 5 7 9 10 9 9 8 7 8 8 11 11 10 8 7 6 8 13 17 16 8 8 7 11 9 5 4 4 3 2 0 2 3 10 14 15 16 15 14 14 15 13 11 9 5 2 5 3 7 16 18 13 12 13 12 12 12 12 12 12 11 11 10 9 9 9 8
2 2 4 4 2 5 6 6 8 8 6 6 2 2 3 6 5 3 3 4 5 6 7 8 11 13 12 9 8 7 6 9 11 9 5 6 7 8 12 18 14 5 5 11 11 7 5 4 5 6 8 5 2 1 6 11 10 11 13 13 12 11 10 12 10 1 4 0 5 9 13 16 14 13 13 13 12 12 12 11 11 11 11 10 10 10 10 9
2 1 2 2 1 3 4 3 6 8 4 4 2 2 3 6 7 5 4 5 6 8 9 9 10 14 14 11 8 8 7 8 10 8 5 7 10 11 12 14 11 7 10 13 9 7 6 4 6 8 9 7 5 4 6 8 7 6 6 8 6 5 7 10 8 5 9 9 13 16 16 15 12 12 13 13 12 12 11 11 11 12 11 11 10 10 9 9
1 2 1 1 3 3 2 1 3 4 1 3 3 2 3 6 8 7 6 7 8 8 10 12 12 11 11 12 12 10 9 8 9 8 8 9 9 8 8 9 9 12 14 11 8 7 5 4 7 9 8 8 9 9 8 10 12 13 10 8 7 5 6 7 9 12 14 13 16 19 18 12 9 11 14 13 12 12 12 12 11 11 11 11 11 10 10 9
5 4 3 3 3 1 1 0 1 2 1 0 2 2 3 6 9 9 8 10 11 10 10 13 13 9 9 12 11 8 10 9 10 4 4 9 6 5 5 7 10 13 14 9 7 7 7 6 7 8 7 8 11 13 13 13 14 14 13 9 8 7 7 8 9 9 12 15 16 15 11 8 9 12 13 13 13 13 13 12 11 10 10 11 10 10 10 9
6 4 2 4 3 1 3 3 3 2 2 4 6 7 7 9 11 11 8 7 9 11 11 10 7 5 5 5 3 1 5 6 11 4 3 8 6 2 2 8 11 11 11 9 8 7 8 7 6 7 6 7 10 13 14 12 9 8 7 5 3 6 9 11 12 11 11 13 11 7 8 11 12 13 14 14 14 14 12 11 10 10 11 11 10 10 9 9
Wind_Direction
332 330 327 329 327 325 325 322 319 318 318 315 313 315 315 314 313 317 319 316 317 318 317 318 317 316 314 315 314 315 324 313 301 283 257 249 243 243 243 243 260 218 207 217 206 193 189 200 203 203 214 208 215 230 198 200 231 219 232 237 231 234 223 214 188 195 74 88 84 106 163 247 163 172 186 170 177 147 146 127 102 100 71 83 104 119 132 141
325 327 327 327 326 326 325 323 321 319 317 314 311 310 313 314 311 312 315 315 315 316 317 317 317 316 313 312 313 322 325 307 289 278 264 254 244 243 243 242 247 212 202 218 207 198 194 196 198 198 212 211 204 211 187 191 218 220 230 232 231 239 213 232 8 33 39 77 68 98 162 273 183 162 170 186 171 153 158 132 119 115 108 109 118 128 132 139
321 320 322 322 321 322 322 321 319 320 317 315 312 306 306 309 310 309 309 313 313 314 315 315 317 315 313 312 317 329 321 302 282 271 259 237 236 239 241 239 235 213 204 219 212 207 210 203 196 198 214 220 203 195 186 185 201 221 234 235 233 247 239 132 344 12 41 28 28 85 188 210 178 165 180 191 175 176 171 139 149 143 135 134 130 134 134 142
319 316 317 316 316 319 321 319 316 317 315 312 310 305 303 301 302 306 306 309 311 314 314 313 317 313 314 315 318 330 313 292 274 252 140 163 198 218 230 231 222 211 210 225 224 217 223 215 199 205 221 225 207 198 204 186 187 217 225 238 238 260 271 178 192 211 92 342 334 76 218 181 166 190 207 198 185 187 171 155 158 145 150 143 134 137 137 145
314 314 314 313 313 317 317 316 313 310 311 308 303 301 303 300 300 304 303 306 309 313 313 313 314 312 315 313 314 322 298 277 126 102 117 142 131 133 205 223 213 206 209 224 228 221 225 225 209 211 226 233 217 202 217 202 195 229 222 242 264 322 269 181 159 179 125 225 237 221 230 164 187 194 212 211 201 191 164 165 146 137 170 146 136 141 138 146
309 310 310 311 312 313 312 312 310 306 305 303 297 294 297 299 300 303 303 305 308 311 313 312 313 314 312 308 306 295 263 260 82 108 136 140 78 358 4 262 206 200 208 220 223 220 220 222 215 213 222 234 228 211 218 207 200 236 223 232 259 268 251 189 147 162 180 222 208 248 260 192 227 190 199 214 216 87 131 145 125 133 175 143 139 142 137 149
304 304 304 308 309 309 309 308 307 303 302 301 295 289 289 292 295 297 300 302 305 310 311 308 312 313 312 313 294 264 243 268 273 129 190 215 310 313 317 267 197 196 208 216 216 216 214 216 216 216 218 226 233 220 220 213 202 229 238 223 231 236 241 222 170 175 197 227 211 259 222 202 221 179 185 187 89 77 106 115 111 138 168 138 138 139 138 151
302 303 302 304 305 305 306 303 303 301 303 305 300 294 291 291 293 293 296 300 303 306 307 307 311 311 313 316 287 245 232 254 243 120 297 254 281 300 273 198 192 197 209 213 213 212 212 216 215 216 222 224 232 226 222 222 208 219 244 242 219 222 234 229 221 208 206 221 212 223 210 199 213 177 175 146 124 136 118 112 111 142 155 133 141 140 141 149
299 301 301 302 302 302 302 300 300 299 299 301 300 301 295 291 295 295 295 299 301 304 306 305 308 309 305 299 278 254 236 241 236 169 311 261 246 235 215 194 193 200 208 212 213 213 212 216 216 218 230 232 234 233 222 225 215 210 230 241 229 219 221 219 217 212 210 209 200 204 199 186 181 187 168 135 133 140 128 126 131 157 156 141 147 140 142 147
296 298 298 300 301 300 301 299 297 297 296 295 295 297 292 288 292 294 293 295 298 300 303 303 304 306 294 274 254 250 224 215 235 232 259 251 216 204 208 203 195 200 208 211 212 213 214 217 218 221 239 247 249 247 226 221 220 200 224 234 231 227 213 207 211 205 205 205 200 200 194 174 168 200 179 131 146 150 141 143 148 157 154 144 143 137 143 146
295 298 298 302 303 301 300 297 296 297 296 294 291 288 289 288 290 294 293 291 293 293 298 301 298 293 285 268 243 233 155 187 219 186 193 216 214 211 213 213 202 206 212 210 212 213 215 220 221 222 234 247 254 253 234 222 229 218 231 236 226 232 220 204 211 203 201 203 198 206 194 162 172 210 193 141 159 167 149 154 159 153 147 144 137 136 143 144
290 294 299 303 306 305 301 298 298 296 295 294 291 286 286 287 287 290 290 290 292 292 296 295 292 283 275 265 239 236 234 197 203 189 221 201 209 215 219 228 218 216 216 213 214 212 216 221 224 230 224 227 238 246 240 219 229 235 230 239 220 221 224 209 210 202 204 199 185 205 199 165 187 201 159 140 159 170 153 158 161 149 147 143 134 139 142 139
280 286 294 299 304 305 302 300 298 295 294 292 291 289 286 285 284 286 288 288 288 288 289 284 283 274 266 261 239 242 252 256 255 266 249 228 225 214 219 239 228 222 223 223 217 210 217 220 225 237 232 232 227 234 268 209 216 231 219 235 221 209 215 207 205 200 204 191 176 201 203 174 189 168 130 138 161 167 159 163 163 155 154 145 139 144 136 135
273 276 283 292 299 300 297 298 296 295 295 293 292 291 286 281 280 283 281 280 285 284 281 276 269 261 254 258 253 248 251 258 259 254 242 233 231 222 220 231 224 220 224 231 226 212 214 215 222 240 235 241 237 133 242 207 202 222 213 225 230 218 205 194 198 199 196 178 175 203 217 187 176 147 139 154 165 173 171 170 167 162 156 146 141 141 136 140
272 275 279 287 293 295 293 293 293 293 293 293 292 288 284 282 282 280 272 271 276 272 271 266 251 250 254 259 260 250 241 244 247 242 234 226 224 227 223 214 213 212 215 227 228 211 204 202 211 233 222 229 247 242 221 211 201 213 213 215 220 235 204 181 189 195 191 174 179 207 224 185 161 145 157 165 174 190 187 172 162 166 166 151 145 145 143 142
271 275 281 284 288 292 292 290 291 290 289 290 290 289 289 288 287 280 269 262 264 257 249 245 227 230 263 272 248 222 218 224 233 234 228 222 219 222 214 198 200 202 201 210 215 197 190 197 208 227 221 213 230 236 215 209 203 205 220 217 205 228 211 172 181 190 194 181 180 211 223 144 142 148 160 169 182 192 195 175 159 171 175 157 150 151 147 140
270 274 279 282 285 290 290 289 288 288 289 288 289 297 295 288 282 277 269 255 250 235 230 244 228 213 256 284 267 214 209 212 224 223 215 213 214 215 203 185 191 193 188 191 194 186 188 200 206 215 225 216 212 221 218 207 202 199 213 219 205 217 206 165 175 186 197 189 182 212 215 117 135 146 151 168 180 186 193 179 160 170 175 159 155 154 150 138
268 271 277 281 285 288 288 287 285 289 291 288 295 303 298 282 266 260 250 223 217 212 227 252 247 216 243 250 241 228 213 206 206 207 203 200 203 209 198 183 186 185 184 185 189 191 188 195 204 205 213 215 207 212 222 210 203 199 200 216 208 207 202 174 176 186 197 194 187 209 199 127 139 136 135 156 170 183 184 169 164 174 173 160 159 157 146 121
264 268 275 280 284 285 287 286 284 288 289 292 299 298 284 268 248 234 207 188 190 189 209 209 198 216 299 215 213 207 187 187 186 195 195 187 192 203 196 187 185 183 188 185 187 192 187 191 204 211 207 208 208 209 221 220 211 203 197 215 212 202 205 183 178 185 192 194 191 205 191 142 145 134 126 131 142 170 161 154 177 175 170 171 167 143 118 104
261 266 273 278 282 283 285 283 283 286 287 293 299 288 258 225 220 218 195 192 203 210 228 199 186 221 276 162 190 193 151 165 188 200 192 182 184 194 194 189 184 188 197 191 186 187 190 201 204 211 208 204 208 210 221 228 228 216 201 212 215 203 208 193 182 181 186 195 193 201 188 145 143 134 125 125 134 160 163 173 193 177 168 169 149 113 101 99
260 265 271 277 281 283 282 279 279 282 283 286 283 269 244 227 229 235 192 200 216 225 243 233 195 223 252 250 152 200 209 194 203 203 188 180 182 187 188 188 187 192 202 198 189 183 195 212 208 209 211 207 208 211 221 230 241 243 211 205 209 204 208 191 168 171 183 199 197 199 185 144 142 136 127 131 132 144 157 171 192 185 167 139 107 100 101 92
260 265 272 277 280 282 281 277 275 277 277 272 260 247 254 278 324 329 267 230 225 222 236 244 229 231 246 252 233 231 244 205 197 198 182 178 185 188 181 187 194 190 196 200 189 186 202 218 212 207 210 211 209 207 219 227 233 243 221 208 208 203 202 170 151 172 187 202 194 190 173 140 148 144 132 133 124 121 119 134 166 168 146 117 103 101 96 85
262 267 273 274 278 281 277 273 272 272 266 256 248 240 251 274 309 306 275 274 256 225 222 232 235 233 234 241 229 213 235 212 195 189 177 180 190 193 185 187 198 194 194 201 194 192 203 213 211 205 206 211 207 202 212 222 222 228 223 213 204 203 202 167 161 182 193 206 189 172 161 142 148 144 136 126 115 114 105 96 97 95 90 91 95 91 88 87
264 268 272 273 276 276 272 275 271 264 255 246 244 244 251 265 286 293 273 268 272 245 225 216 220 228 224 227 218 207 224 222 212 186 173 187 191 192 198 191 196 200 199 203 201 203 211 206 204 203 202 206 204 201 206 211 211 221 227 223 212 209 199 158 163 184 195 211 194 176 179 163 161 159 145 132 121 118 112 101 91 88 86 85 85 80 79 80
265 270 274 273 270 270 272 275 265 251 242 238 240 242 246 252 261 280 281 263 255 245 228 210 207 219 218 219 211 204 214 222 231 196 171 192 196 188 201 194 199 207 200 203 203 209 218 202 195 200 198 200 205 201 202 204 204 214 225 234 232 214 189 165 174 183 191 204 192 189 196 181 180 176 157 153 139 114 103 98 88 82 84 84 82 77 74 72
267 271 273 268 261 261 258 266 264 244 231 233 238 232 218 218 230 274 268 258 251 225 201 192 190 197 202 209 198 192 213 216 227 207 173 191 202 194 198 193 202 212 201 202 205 213 219 197 189 202 197 197 206 202 197 201 209 214 209 225 239 221 196 185 181 183 195 199 188 198 209 182 180 181 167 168 152 124 104 92 86 80 81 80 78 76 74 73
267 268 268 262 248 235 232 279 306 259 228 223 215 179 167 186 193 266 238 242 246 197 176 175 172 174 182 190 179 184 210 188 200 214 185 187 200 203 208 195 194 214 202 194 209 212 212 202 192 200 196 193 203 201 194 198 215 220 186 206 237 231 207 193 181 193 207 196 186 199 214 201 183 182 168 168 160 143 125 102 93 85 82 82 79 75 73 71
266 265 261 253 236 227 241 285 295 245 210 113 165 170 166 178 215 227 228 231 198 147 161 167 156 165 177 178 177 194 214 169 176 206 189 186 198 204 213 203 194 209 201 192 210 196 198 209 193 188 193 195 203 203 196 197 213 227 187 192 227 239 216 193 186 209 209 199 194 198 211 211 186 181 168 170 174 157 137 116 103 93 88 87 85 83 78 73
264 260 253 245 235 233 245 268 265 242 244 96 171 184 186 199 236 220 230 227 168 133 147 154 151 172 180 174 180 200 213 187 176 183 179 187 202 210 219 209 199 206 205 201 210 194 194 211 194 185 198 203 202 204 199 195 211 229 202 186 202 231 225 201 198 214 209 211 208 194 206 217 189 177 175 181 185 167 139 120 108 102 98 90 86 84 80 76
260 253 246 235 231 233 238 246 244 241 250 221 192 194 204 220 227 203 210 221 182 152 149 152 162 180 179 173 184 198 206 205 177 168 175 186 200 210 222 218 207 208 207 203 212 211 192 192 192 194 210 208 197 202 200 195 208 222 197 186 199 213 226 217 215 221 213 216 211 195 203 217 205 173 180 194 188 168 144 127 121 114 105 97 92 85 78 75
258 248 237 228 231 234 230 238 234 221 219 215 202 209 216 217 230 207 190 207 193 153 151 167 174 178 179 177 181 190 201 206 176 166 177 181 191 201 208 214 208 206 206 198 211 214 186 176 197 204 213 210 196 201 199 193 207 211 182 196 205 198 213 219 219 225 222 218 210 199 201 212 217 193 193 196 172 154 143 132 130 120 108 102 95 86 82 78
252 242 231 229 241 244 226 257 314 192 185 185 200 215 215 201 227 226 193 197 198 163 168 178 175 176 180 182 181 183 194 201 176 170 178 180 185 194 200 204 191 194 204 193 204 212 191 187 199 200 208 209 198 197 191 189 207 206 188 201 204 189 199 208 208 213 222 226 213 205 207 210 215 177 168 151 125 125 125 123 122 115 108 104 98 90 84 79
242 235 231 231 240 240 227 242 277 157 146 174 207 216 219 209 211 216 212 195 161 193 208 177 171 177 180 182 182 180 191 198 177 174 181 183 185 190 201 207 195 193 201 192 197 204 195 193 195 196 201 202 206 202 183 186 203 199 194 201 202 193 191 200 207 204 216 229 214 210 213 192 116 79 101 105 108 113 112 109 109 108 107 103 98 91 83 78
247 235 238 238 237 237 234 234 218 190 189 217 216 206 215 226 206 202 214 192 132 190 232 185 171 177 182 187 181 177 192 196 178 178 184 183 187 189 198 206 200 199 200 195 199 197 196 194 192 200 191 186 210 213 187 194 199 194 204 210 207 208 197 197 208 203 205 214 208 215 220 167 124 127 107 108 115 115 110 109 107 107 106 103 98 91 84 79
264 250 247 242 235 232 229 223 209 205 218 223 218 208 209 219 207 197 195 143 138 178 204 214 189 178 183 191 181 179 195 193 178 185 188 185 192 189 191 201 199 201 199 190 198 198 203 201 185 196 190 183 208 212 186 196 201 193 210 215 210 212 202 197 218 224 220 212 202 204 207 72 105 135 129 123 120 116 113 113 114 111 109 107 98 91 85 77
263 253 241 230 227 221 212 208 200 200 212 217 220 220 214 221 238 236 204 125 172 176 182 225 208 183 180 189 179 180 196 196 180 187 191 189 195 191 191 199 197 201 201 192 197 193 201 202 180 186 191 187 203 208 190 196 201 193 208 216 213 211 207 203 214 233 266 230 199 163 110 99 117 134 141 137 130 129 124 118 121 120 116 111 97 91 87 78
258 247 232 222 220 206 195 192 188 192 209 222 229 233 228 240 276 344 298 247 143 176 211 210 206 193 182 187 180 177 188 193 184 190 194 190 195 193 193 196 197 201 202 196 202 194 199 205 179 180 190 185 191 207 206 204 203 198 203 211 215 212 210 210 206 205 219 223 203 170 151 153 165 163 154 154 149 144 135 127 127 124 116 107 96 92 85 77
267 251 234 224 204 185 180 180 180 188 210 224 237 250 250 267 275 250 253 258 126 210 233 196 209 209 186 185 183 176 183 189 183 189 193 189 193 193 193 193 195 199 198 195 200 195 202 209 176 181 191 182 179 202 213 205 207 216 207 200 213 216 206 205 212 206 204 210 207 182 167 177 198 174 162 169 160 145 142 139 135 128 118 108 100 96 87 79
270 247 212 184 169 165 167 172 180 192 219 223 233 248 238 257 266 259 271 314 267 233 242 34 239 217 191 190 186 177 184 187 184 190 193 191 188 190 195 194 189 195 197 196 197 195 205 212 179 183 190 180 175 197 209 197 205 224 218 200 211 222 210 206 213 214 209 211 208 190 178 192 210 168 169 175 159 147 151 148 138 127 117 111 105 99 87 77
256 244 134 137 154 159 161 173 190 200 220 225 230 245 244 253 256 248 266 336 312 286 34 330 269 227 192 198 194 181 184 185 185 193 192 189 184 186 194 191 183 192 198 196 193 191 207 211 187 182 188 188 184 194 202 195 196 214 214 202 206 212 210 212 215 216 219 216 208 201 192 182 27 158 174 170 154 153 154 142 132 122 114 110 104 100 89 80
231 240 124 144 157 160 164 179 204 208 217 228 236 252 257 266 259 233 167 349 316 301 277 295 284 271 231 220 202 184 181 181 188 193 185 187 190 189 194 190 184 190 196 197 191 186 202 206 191 187 191 196 193 190 200 202 197 200 209 210 208 204 204 211 211 213 222 223 216 208 183 115 21 357 178 164 149 146 145 136 129 120 114 109 103 99 93 88
233 228 131 147 161 170 179 194 209 212 224 225 224 239 246 260 270 257 155 207 266 257 259 274 270 262 257 253 225 193 185 180 186 190 181 185 192 192 191 190 189 187 191 199 190 182 203 206 191 198 201 198 191 190 202 209 203 198 206 220 214 204 207 214 210 209 215 223 224 207 148 100 24 17 98 150 139 133 138 134 125 120 115 109 106 101 96 93
237 201 115 150 172 183 197 217 209 209 226 225 223 236 242 246 258 252 200 247 283 267 263 274 267 253 234 246 264 219 196 180 182 188 180 178 187 196 191 187 188 185 188 202 188 173 196 214 196 203 206 199 194 192 197 209 213 203 203 220 221 207 208 217 220 213 212 223 226 204 143 123 54 36 72 114 118 122 131 128 122 121 116 110 109 104 100 97
209 229 118 153 179 195 216 224 212 209 217 220 227 244 248 245 256 268 262 274 298 281 274 278 267 265 259 263 286 246 210 186 182 186 183 177 178 193 194 187 189 188 184 196 185 163 187 214 199 195 194 190 196 197 191 198 216 214 201 210 217 212 209 217 227 221 219 227 223 204 146 130 122 100 97 108 115 118 119 119 118 118 116 114 113 106 103 100
197 178 138 158 182 209 240 248 269 269 234 220 227 251 257 237 197 330 305 287 285 277 278 286 274 279 288 287 290 259 222 196 179 180 185 176 157 176 195 188 194 197 183 185 185 170 188 212 204 207 204 191 189 197 195 193 205 216 209 207 213 214 210 208 216 218 218 226 224 201 130 123 131 134 125 118 119 117 114 117 116 114 116 117 115 110 105 101
273 170 147 164 187 217 244 255 276 285 263 235 230 247 255 240 168 36 303 276 271 264 267 280 280 282 281 273 275 257 213 181 163 175 180 159 143 172 192 190 197 194 156 155 177 173 183 203 191 220 224 206 203 201 197 193 195 205 211 211 216 221 218 212 211 214 215 224 227 158 131 138 146 146 139 129 123 120 121 123 118 115 117 117 117 117 111 104
283 190 163 169 190 210 225 242 246 254 264 254 247 258 253 258 294 334 264 248 254 254 259 265 260 259 262 248 241 247 210 172 173 185 169 136 142 181 192 194 197 173 113 152 185 182 185 178 151 127 122 115 293 206 194 199 199 202 207 211 215 219 230 234 216 197 225 237 221 120 132 142 151 152 144 136 131 126 126 126 121 118 120 120 120 117 110 105
222 191 168 169 206 206 199 220 231 231 246 253 269 347 278 273 283 268 249 261 256 242 242 249 243 239 243 239 226 236 218 171 171 178 154 141 170 188 190 189 185 149 156 188 187 183 189 171 165 165 145 128 66 72 193 201 198 201 205 206 211 214 226 239 233 226 21 57 149 136 136 136 143 149 142 135 131 125 124 124 120 119 121 121 119 114 109 104
198 210 168 163 265 241 200 204 226 225 244 280 288 297 285 277 267 255 272 282 264 245 232 236 242 231 228 235 225 215 214 185 164 167 176 182 187 185 178 177 172 172 194 193 178 178 186 166 172 165 131 116 119 119 153 161 128 113 164 179 197 218 213 217 212 120 82 99 123 127 121 118 128 135 129 125 121 118 121 121 119 122 123 121 117 112 108 102
336 342 350 226 255 254 231 248 231 208 164 354 308 275 279 274 267 269 272 258 252 246 225 226 242 237 225 231 222 210 215 188 156 170 180 171 182 189 173 166 170 183 194 189 168 174 180 167 171 157 127 129 142 131 132 137 117 95 90 109 127 135 129 123 114 104 98 98 107 114 113 109 117 121 119 119 118 119 122 119 118 121 121 119 115 110 105 98
329 329 342 300 274 184 142 171 153 136 109 316 264 265 252 247 251 260 264 248 241 239 222 220 234 246 244 234 216 220 235 192 155 168 163 145 172 218 184 172 174 181 189 179 160 176 186 178 175 164 149 149 148 139 131 123 109 92 78 79 103 113 102 95 93 99 117 124 124 122 123 130 133 127 122 121 121 120 118 117 118 119 118 116 111 108 105 96
335 325 341 306 287 137 128 138 126 123 222 210 203 214 230 245 244 236 242 252 236 228 226 226 241 265 248 212 153 336 279 170 144 136 107 137 166 229 188 182 179 176 182 173 163 180 179 170 177 173 156 144 144 142 137 133 126 101 75 44 60 103 97 87 79 77 107 136 144 140 138 140 139 133 126 123 122 119 116 119 120 120 119 113 106 103 100 91